[[{"header":{"parameterUnit":"m.s-1","parameterCategory":1,"la1":30.2992,"la2":30.254,"lo1":-89.0895,"lo2":-89.0443,"dy":0.0025,"dx":0.0025,"nx":19,"ny":19,"refTime":"2026-03-14T21:00:00:Z","depth":0,"parameterNumber":2,"parameterNumberName":"U-component_of_WINDS"},"data":[0,0,0,-2.1746,-2.1748,-2.1832,-2.1832,-2.1954,-2.1955,0,0,0,0,0,0,0,0,0,0,0,-2.1725,-2.1726,-2.1746,-2.1748,-2.1832,-2.1832,-2.1954,-2.1955,0,0,0,0,0,0,0,0,0,0,0,-2.1725,-2.1726,-2.1727,-2.1748,-2.1832,-2.1833,-2.1954,-2.1886,0,0,0,0,0,0,0,0,0,0,-2.1802,-2.1787,-2.1726,-2.1727,-2.1749,-2.1832,-2.1833,-2.1882,-2.189,-2.1921,0,-2.1946,0,-2.1953,-2.1964,-2.1965,0,0,0,-2.1745,-2.178,-2.1799,-2.1727,-2.1749,-2.1832,-2.1793,-2.1887,-2.1895,-2.1931,-2.1948,-2.1952,-2.1955,-2.1965,-2.1966,-2.2148,-2.2149,0,0,-2.174,-2.1744,-2.1793,-2.1805,-2.1789,-2.1791,-2.1796,-2.1892,-2.1911,-2.1948,-2.1955,-2.1957,-2.1966,-2.1967,-2.2147,-2.2148,0,0,0,-2.1729,-2.174,-2.1756,-2.18,-2.1814,-2.1793,-2.1799,-2.1907,-2.1912,-2.1956,-2.1958,-2.1967,-2.1968,-2.2146,-2.2147,-2.2199,0,0,0,-2.1726,-2.1734,-2.1754,-2.1757,-2.1812,-2.1861,-2.1813,-2.1905,-2.1916,-2.1958,-2.1967,-2.1969,-2.2144,-2.2146,-2.2195,-2.2223,0,0,0,-2.1718,-2.1733,-2.1746,-2.1757,-2.1794,-2.1859,-2.1869,-2.1907,-2.1918,-2.1965,-2.197,-2.2144,-2.2146,-2.2192,-2.2217,-2.2273,0,0,0,-2.1712,-2.1791,-2.1747,-2.1837,-2.1793,-2.189,-2.1869,-2.1941,-2.1988,-2.1967,-2.2145,-2.2147,-2.2191,-2.2214,-2.2269,-2.232,-2.2342,0,0,-2.1813,-2.1803,-2.1856,-2.182,-2.1925,-2.1877,-2.1992,-2.2031,-2.2034,-2.2111,-2.2115,-2.2197,-2.2217,-2.2272,-2.246,-2.2477,0,0,0,-2.189,-2.1928,-2.1955,-2.1999,-2.2031,-2.2063,-2.2085,-2.2101,-2.2166,-2.2073,-2.2232,-2.2244,-2.2276,-2.23,-2.2315,-2.2344,-2.2158,-2.2158,-2.2158,-2.2038,-2.2037,-2.2125,-2.2135,-2.2179,-2.2203,-2.224,-2.2266,-2.2251,-2.2289,-2.2311,-2.2425,-2.2454,-2.2464,-2.2494,-2.2338,-2.2339,-2.2339,-2.2339,-2.2187,-2.2241,-2.2223,-2.2302,-2.2302,-2.237,-2.2399,-2.2387,-2.2453,-2.2407,-2.2436,-2.2386,-2.2483,-2.2509,-2.2343,-2.2342,-2.2342,-2.2341,-2.2341,-2.2284,-2.231,-2.2328,-2.2394,-2.2446,-2.2456,-2.252,-2.2518,-2.2517,-2.2545,-2.2571,-2.257,-2.257,-2.2558,-2.2558,-2.2558,-2.2559,-2.2559,-2.2559,-2.2376,-2.2395,-2.2448,-2.2492,-2.2522,-2.2562,-2.2591,-2.2622,-2.2656,-2.265,-2.265,-2.2635,-2.2492,-2.2456,-2.2565,-2.2564,-2.2564,-2.2563,-2.2563,-2.2528,-2.2494,-2.2575,-2.2606,-2.266,-2.2714,-2.2712,-2.2777,-2.2802,-2.2835,-2.2815,-2.271,-2.2699,-2.2688,-2.2658,-2.2813,-2.2813,-2.2813,-2.2813,-2.261,-2.2605,-2.2689,-2.2739,-2.2787,-2.2795,-2.2893,-2.2918,-2.294,-2.2957,-2.2935,-2.2896,-2.2884,-2.2881,-2.2866,-2.2838,-2.3035,-2.3035,-2.3036,-2.2704,-2.2704,-2.2784,-2.2803,-2.2846,-2.2885,-2.2978,-2.3039,-2.3057,-2.3045,-2.2971,-2.2962,-2.2899,-2.2878,-2.2862,-2.2838,-2.2787,0,0]},{"header":{"parameterUnit":"m.s-1","parameterCategory":1,"la1":30.2992,"la2":30.254,"lo1":-89.0895,"lo2":-89.0443,"dy":0.0025,"dx":0.0025,"nx":19,"ny":19,"refTime":"2026-03-14T21:00:00:Z","depth":0,"parameterNumber":3,"parameterNumberName":"V-component_of_WINDS"},"data":[0,0,0,3.5777,3.5776,3.5739,3.5739,3.5678,3.5677,0,0,0,0,0,0,0,0,0,0,0,3.5784,3.5783,3.5777,3.5776,3.5739,3.5739,3.5678,3.5677,0,0,0,0,0,0,0,0,0,0,0,3.5784,3.5783,3.5783,3.5776,3.5739,3.5739,3.5678,3.571,0,0,0,0,0,0,0,0,0,0,3.5748,3.575,3.5783,3.5783,3.5776,3.5739,3.5739,3.5712,3.5708,3.569,0,3.5676,0,3.5676,3.5673,3.5673,0,0,0,3.5779,3.5753,3.5748,3.5782,3.5776,3.5739,3.5757,3.571,3.5706,3.5685,3.5675,3.5673,3.5675,3.5672,3.5672,3.5569,3.5568,0,0,3.5781,3.5773,3.5751,3.5745,3.5754,3.5758,3.5755,3.5708,3.5695,3.5675,3.5672,3.5674,3.5672,3.5671,3.557,3.5569,0,0,0,3.5785,3.5774,3.5771,3.5748,3.5742,3.5757,3.5754,3.5697,3.5697,3.5672,3.5673,3.5672,3.5671,3.557,3.5569,3.5534,0,0,0,3.5786,3.5777,3.5772,3.5766,3.5743,3.572,3.5744,3.57,3.5695,3.5674,3.5672,3.567,3.5571,3.557,3.5536,3.5518,0,0,0,3.5787,3.5777,3.5771,3.5766,3.575,3.5721,3.5718,3.5699,3.5696,3.5673,3.567,3.5571,3.557,3.5539,3.5521,3.5489,0,0,0,3.5785,3.5737,3.577,3.5717,3.5751,3.5701,3.5718,3.568,3.5656,3.5671,3.5571,3.5569,3.5539,3.5523,3.5491,3.546,3.5447,0,0,3.572,3.5729,3.5699,3.5727,3.567,3.5707,3.5643,3.5626,3.5628,3.5588,3.5585,3.5536,3.5521,3.5489,3.5376,3.5365,0,0,0,3.5676,3.5654,3.564,3.5619,3.5608,3.5596,3.5591,3.5584,3.5551,3.5608,3.5516,3.5507,3.5489,3.5474,3.5465,3.5449,3.5563,3.5563,3.5563,3.5571,3.5581,3.5531,3.5537,3.5515,3.5512,3.5495,3.5486,3.5498,3.5477,3.5464,3.5395,3.5377,3.5371,3.5354,3.5449,3.5449,3.5449,3.5449,3.5476,3.5447,3.5469,3.5429,3.5438,3.5403,3.5397,3.5408,3.5375,3.5404,3.5388,3.5419,3.5359,3.5345,3.5446,3.5447,3.5447,3.5447,3.5447,3.5408,3.5396,3.5392,3.5364,3.534,3.5347,3.5315,3.5324,3.5332,3.5316,3.5304,3.5304,3.5305,3.531,3.531,3.5309,3.5309,3.5309,3.5309,3.5339,3.5336,3.5311,3.5297,3.5285,3.527,3.5267,3.5255,3.5243,3.5252,3.5251,3.5266,3.5352,3.5373,3.5305,3.5306,3.5306,3.5307,3.5307,3.5238,3.5263,3.5224,3.5212,3.5197,3.5173,3.5186,3.516,3.5151,3.5135,3.5154,3.5216,3.5225,3.5232,3.5249,3.5153,3.5153,3.5153,3.5153,3.5181,3.5187,3.515,3.5131,3.5113,3.5122,3.5074,3.5071,3.5071,3.5065,3.5081,3.5105,3.5112,3.5116,3.5126,3.5142,3.5021,3.5021,3.502,3.5119,3.5125,3.5084,3.5088,3.5077,3.5066,3.5021,3.4997,3.5001,3.5015,3.5061,3.5067,3.5106,3.5118,3.5132,3.5147,3.5177,0,0]}]]